Date String (YYYY-MM-DD hh:mm:ss) UTC,Instrument flags,Ambient pressure (hPa),Sample flow (lpm),Bypass flow (lpm),Sample temperature (°C),Ambient temperature (°C),ASC tube jacket temperature (°C),LED temperature (°C),Box temperature (°C),Sample RH (%),Span deviation,Mass concentration (μg/m³),Mass concentration (μg/m³),Mass concentration (μg/m³)
DateTimeUTC,F1_M11,P_M11,Q1_M11,Q2_M11,T1_M11,T2_M11,T3_M11,T4_M11,T5_M11,U1_M11,ZSPAN_M11,X0_M11,X2_M11,X1_M11
2022-12-08 08:00:00,,0823.5,5.00,0.00,22.1,20.8,00.0,31.1,24.0,12.0,0000.0,0013.02,0005.12,0004.28
2022-12-08 08:01:00,,0823.4,4.99,0.00,22.1,20.8,00.0,31.1,23.9,12.0,0000.0,0012.81,0005.15,0004.29
2022-12-08 08:02:00,,0823.4,4.99,0.00,22.1,20.8,00.0,31.1,23.9,12.0,0000.0,0012.30,0005.15,0004.28
2022-12-08 08:03:00,,0823.4,5.01,0.00,22.1,20.8,00.0,31.0,23.9,12.0,0000.0,0012.58,0005.07,0004.27
2022-12-08 08:04:00,,0823.4,5.01,0.00,22.1,20.8,00.0,31.0,23.9,12.0,0000.0,0012.74,0005.03,0004.24
2022-12-08 08:05:00,,0823.4,5.00,0.00,22.1,20.8,00.0,31.0,23.9,12.0,0000.0,0013.55,0005.02,0004.22
2022-12-08 08:06:00,,0823.4,5.00,0.00,22.1,20.7,00.0,31.0,23.9,12.0,0000.0,0013.54,0005.03,0004.22
2022-12-08 08:07:00,,0823.4,5.00,0.00,22.1,20.7,00.0,31.0,23.9,12.0,0000.0,0013.85,0005.05,0004.21
2022-12-08 08:08:00,,0823.4,5.00,0.00,22.1,20.7,00.0,31.0,23.8,12.1,0000.0,0014.13,0005.07,0004.20
2022-12-08 08:09:00,,0823.4,5.00,0.00,22.1,20.7,00.0,31.0,23.8,12.1,0000.0,0013.78,0005.05,0004.18
2022-12-08 08:10:00,,0823.4,4.99,0.00,22.1,20.7,00.0,31.0,23.8,12.0,0000.0,0013.65,0004.99,0004.17
2022-12-08 08:11:00,,0823.3,5.01,0.00,22.1,20.7,00.0,31.0,23.8,12.0,0000.0,0013.06,0004.99,0004.16
2022-12-08 08:12:00,,0823.4,5.00,0.00,22.0,20.7,00.0,31.0,23.8,12.1,0000.0,0012.20,0004.93,0004.14
2022-12-08 08:13:00,,0823.4,5.01,0.00,22.0,20.7,00.0,31.0,23.9,12.1,0000.0,0012.07,0004.89,0004.12
2022-12-08 08:14:00,,0823.3,5.01,0.00,22.0,20.7,00.0,31.0,23.9,12.1,0000.0,0011.59,0004.89,0004.11
2022-12-08 08:15:00,,0823.3,5.00,0.00,22.0,20.7,00.0,31.0,23.8,12.1,0000.0,0011.36,0004.90,0004.11
2022-12-08 08:16:00,,0823.3,5.00,0.00,22.0,20.6,00.0,31.0,23.7,12.1,0000.0,0010.69,0004.93,0004.12
2022-12-08 08:17:00,,0823.4,4.99,0.00,22.0,20.6,00.0,31.0,23.7,12.1,0000.0,0010.77,0004.92,0004.10
2022-12-08 08:18:00,,0823.3,5.00,0.00,22.0,20.6,00.0,31.0,23.7,12.1,0000.0,0010.47,0004.92,0004.11
2022-12-08 08:19:00,,0823.3,5.00,0.00,22.0,20.6,00.0,31.0,23.7,12.1,0000.0,0010.25,0004.90,0004.10
2022-12-08 08:20:00,,0823.3,5.01,0.00,22.0,20.5,00.0,31.0,23.7,12.2,0000.0,0010.61,0004.87,0004.09
2022-12-08 08:21:00,,0823.3,5.01,0.00,22.0,20.5,00.0,30.9,23.7,12.3,0000.0,0010.72,0004.83,0004.08
2022-12-08 08:22:00,,0823.3,5.01,0.00,22.0,21.0,00.0,30.9,23.9,12.2,0000.0,0011.19,0004.82,0004.06
2022-12-08 08:23:00,,0823.3,5.00,0.00,22.1,21.8,00.0,30.9,24.1,12.2,0000.0,0011.69,0004.85,0004.05
2022-12-08 08:24:00,,0823.2,5.00,0.00,22.2,22.3,00.0,30.9,24.3,12.1,0000.0,0011.65,0004.83,0004.04
2022-12-08 08:25:00,,0823.2,4.99,0.00,22.3,22.0,00.0,31.0,24.3,12.1,0000.0,0011.70,0004.82,0004.04
2022-12-08 08:26:00,,0823.2,5.00,0.00,22.3,21.7,00.0,31.0,24.2,12.1,0000.0,0012.14,0004.82,0004.04
2022-12-08 08:27:00,,0823.2,5.01,0.00,22.2,21.5,00.0,31.1,24.2,12.1,0000.0,0012.77,0004.78,0004.04
2022-12-08 08:28:00,,0823.2,5.00,0.00,22.2,21.3,00.0,31.1,24.1,12.0,0000.0,0013.47,0004.76,0004.04
2022-12-08 08:29:00,,0823.2,5.00,0.00,22.2,21.2,00.0,31.1,24.1,12.0,0000.0,0013.97,0004.73,0004.04
2022-12-08 08:30:00,,0823.3,5.01,0.00,22.2,21.1,00.0,31.1,24.0,12.0,0000.0,0014.14,0004.80,0004.06
2022-12-08 08:31:00,,0823.3,4.99,0.00,22.2,21.0,00.0,31.1,24.0,12.0,0000.0,0013.93,0004.86,0004.09
2022-12-08 08:32:00,,0823.2,5.01,0.00,22.2,20.9,00.0,31.1,24.0,12.1,0000.0,0014.08,0004.95,0004.12
2022-12-08 08:33:00,,0823.2,5.01,0.00,22.2,20.8,00.0,31.1,24.0,12.0,0000.0,0013.87,0004.99,0004.15
2022-12-08 08:34:00,,0823.2,5.00,0.00,22.1,20.8,00.0,31.1,23.9,12.0,0000.0,0013.43,0005.02,0004.18
2022-12-08 08:35:00,,0823.3,4.99,0.00,22.1,20.7,00.0,31.1,23.9,12.0,0000.0,0013.66,0005.05,0004.21
2022-12-08 08:36:00,,0823.2,4.99,0.00,22.1,20.7,00.0,31.1,23.8,12.0,0000.0,0013.79,0005.12,0004.25
2022-12-08 08:37:00,,0823.2,5.01,0.00,22.1,20.7,00.0,31.0,23.8,12.0,0000.0,0013.79,0005.14,0004.27
2022-12-08 08:38:00,,0823.2,5.01,0.00,22.0,20.6,00.0,31.0,23.8,12.0,0000.0,0013.47,0005.20,0004.30
2022-12-08 08:39:00,,0823.2,5.00,0.00,22.0,20.6,00.0,31.0,23.8,12.0,0000.0,0013.22,0005.24,0004.33
2022-12-08 08:40:00,,0823.1,4.99,0.00,22.0,20.5,00.0,31.0,23.7,12.0,0000.0,0013.13,0005.28,0004.35
2022-12-08 08:41:00,,0823.1,4.99,0.00,22.0,20.5,00.0,31.0,23.7,12.0,0000.0,0013.57,0005.28,0004.37
2022-12-08 08:42:00,,0823.2,5.00,0.00,22.0,20.5,00.0,31.0,23.6,12.0,0000.0,0013.62,0005.25,0004.38
2022-12-08 08:43:00,,0823.1,5.00,0.00,21.9,20.5,00.0,31.0,23.6,12.0,0000.0,0013.86,0005.26,0004.38
2022-12-08 08:44:00,,0823.1,5.01,0.00,21.9,20.5,00.0,31.0,23.6,12.0,0000.0,0013.71,0005.27,0004.41
2022-12-08 08:45:00,,0823.1,5.01,0.00,21.9,20.5,00.0,31.0,23.7,12.0,0000.0,0013.29,0005.27,0004.43
2022-12-08 08:46:00,,0823.1,5.01,0.00,21.9,20.5,00.0,30.9,23.7,12.0,0000.0,0013.24,0005.32,0004.44
2022-12-08 08:47:00,,0823.1,5.01,0.00,21.9,20.4,00.0,30.9,23.6,12.0,0000.0,0013.73,0005.38,0004.45
2022-12-08 08:48:00,,0823.0,5.00,0.00,21.9,20.4,00.0,30.9,23.6,12.1,0000.0,0014.17,0005.42,0004.48
2022-12-08 08:49:00,,0823.0,5.00,0.00,21.9,20.4,00.0,30.9,23.7,12.1,0000.0,0014.46,0005.46,0004.52
2022-12-08 08:50:00,,0823.1,5.00,0.00,21.9,20.8,00.0,30.9,23.8,12.1,0000.0,0014.75,0005.52,0004.56
2022-12-08 08:51:00,,0823.1,5.00,0.00,22.0,21.7,00.0,30.8,24.0,12.1,0000.0,0014.32,0005.57,0004.56
2022-12-08 08:52:00,,0823.1,5.00,0.00,22.1,22.4,00.0,30.9,24.2,12.1,0000.0,0013.98,0005.54,0004.55
2022-12-08 08:53:00,,0823.2,4.99,0.00,22.2,22.2,00.0,30.9,24.2,12.0,0000.0,0013.72,0005.52,0004.54
2022-12-08 08:54:00,,0823.2,4.99,0.00,22.2,21.9,00.0,31.0,24.2,12.1,0000.0,0013.04,0005.47,0004.52
2022-12-08 08:55:00,,0823.2,5.01,0.00,22.2,21.6,00.0,31.0,24.1,12.1,0000.0,0012.71,0005.41,0004.49
2022-12-08 08:56:00,,0823.1,5.01,0.00,22.2,21.4,00.0,31.0,24.1,12.1,0000.0,0012.66,0005.36,0004.45
2022-12-08 08:57:00,,0823.2,5.00,0.00,22.2,21.2,00.0,31.0,24.1,12.1,0000.0,0013.12,0005.31,0004.41
2022-12-08 08:58:00,,0823.2,4.99,0.00,22.2,21.1,00.0,31.0,24.0,12.1,0000.0,0012.55,0005.20,0004.38
2022-12-08 08:59:00,,0823.2,4.99,0.00,22.2,20.9,00.0,31.0,24.0,12.1,0000.0,0011.90,0005.12,0004.34
